     2              OBSERVATION DATA    GPS                 RINEX VERSION / TYPE
teqc 1997Jul24 19970902 21:06:26UTC                         PGM / RUN BY / DATE
                                                            COMMENT
BIT 2 OF LLI FLAGS DATA COLLECTED UNDER A-S CONDITION       COMMENT
BIT 2 OF LLI FLAGS DATA COLLECTED UNDER A-S CONDITION       COMMENT
Original Marker Name: 55476.NIGU                            COMMENT
Campaign Name: Salt. Tr. Crust. Monit. May-Jun 1986         COMMENT
4-Character Station Name: NIGU                              COMMENT
6-Character Antenna Code: TI4100                            COMMENT
Vertical Measurement Point: PAE                             COMMENT
Vertical Offset to Rinex Ref. Point: 0.0000                 COMMENT
Radial Measurement Point: RRP                               COMMENT
Radial Offset to Rinex Ref. Point: 0.0000                   COMMENT
Antenna Height from Field Measurement: 1.5000 m             COMMENT
Original XYZ: -2474851.5051 -4713897.4785 3500334.4467      COMMENT
New XYZ position is based on association with SCEC monument COMMENT
E1D0D8E5+0011. Position of that monument is believed to be  COMMENT
valid to within 1 m horizontally; vertical accuracy         COMMENT
should be no worse than 3-times this value.                 COMMENT
                                                            COMMENT
Revised Rinex header created by UCSD GPS archive for        COMMENT
GSAC on 12-Apr-1999 (1999:102) 02:50:20 GMT                 COMMENT
For assistance contact dagnew@ucsd.edu or hjohnson@ucsd.edu COMMENT
                                                            COMMENT
NIGUEL A 1884 1981                                          MARKER NAME
5 NATIONAL GEODETIC SURVEY                                  OBSERVER / AGENCY
UT-18 TI 4100 1.0                                           REC # / TYPE / VERS
4014 TI 4100                                                ANT # / TYPE
 -2477021.0000 -4711974.0000  3501809.0000                  APPROX POSITION XYZ
        1.5000        0.0000        0.0000                  ANTENNA: DELTA H/E/N
     1     1     0                                          WAVELENGTH FACT L1/2
     4    P1    P2    L1    L2                              # / TYPES OF OBSERV
     6                                                      INTERVAL
  1986     6    17     4    23   11.000000                  TIME OF FIRST OBS
  1986     6    17     4    35   59.000000                  TIME OF LAST OBS
     0                                                      # OF SATELLITES
                                                            END OF HEADER
 86  6 17  4 23 11.0800000  0  3G12G13G 7
  21682251.041    21682255.296    48835294.312 9 -64077346.878 8
  22244849.145    22244851.569    77258723.244 9 -85867967.146 8
  24345776.817    24345778.858    17007790.321 9 -43050935.857 9
 86  6 17  4 23 17.0800000  0  3G12G13G 7
  21685170.075    21685174.254    48850636.280 9 -64065392.098 8
  22246762.478    22246764.925    77268776.115 9 -85860133.748 8
  24345361.440    24345362.749    17005603.515 9 -43052639.858 9
 86  6 17  4 23 23.0800000  0  3G12G13G 7
  21688093.819    21688097.226    48865996.235 9 -64053423.300 8
  22248675.333    22248678.041    77278830.167 9 -85852299.420 9
  24344949.230    24344951.481    17003440.068 9 -43054325.667 8
 86  6 17  4 23 29.0800000  0  3G12G13G 7
  21691019.595    21691022.681    48881374.074 9 -64041440.573 8
  22250589.016    22250591.129    77288885.303 9 -85844464.237 9
  24344541.772    24344543.441    17001297.699 9 -43055995.031 9
 86  6 17  4 23 35.0800000  0  3G12G13G 7
  21693949.443    21693952.517    48896770.006 9 -64029443.741 8
  22252503.308    22252505.012    77298941.720 9 -85836628.081 9
  24344137.204    24344139.279    16999176.004 9 -43057648.307 8
 86  6 17  4 23 41.0800000  0  3G12G13G 7
  21696883.494    21696886.006    48912184.034 9 -64017432.821 8
  22254415.871    22254419.032    77308999.405 9 -85828790.915 9
  24343737.776    24343739.860    16997076.988 9 -43059283.903 8
 86  6 17  4 23 47.0800000  0  3G12G13G 7
  21699820.382    21699822.239    48927615.900 9 -64005408.000 9
  22256330.178    22256333.109    77319058.187 9 -85820952.905 8
                  24343347.461                   -43060896.880 7
 86  6 17  4 23 53.0800000  0  3G12G13G 7
  21702759.740    21702762.667    48943065.637 9 -63993369.236 8
  22258244.434    22258247.004    77329118.177 9 -85813113.952 9
  24342955.044    24342959.870    16958578.674 9 -43062482.078 8
 86  6 17  4 23 59.0800000  0  3G12G13G 7
  21705702.806    21705704.902    48958533.385 8 -63981316.453 9
  22260158.775    22260162.707    77339179.527 9 -85805273.940 9
  24342576.349    24342578.941    16956582.392 9 -43064037.618 8
 86  6 17  4 24  5.0800000  0  3G12G13G 7
  21708649.412    21708653.115    48974018.998 9 -63969249.746 8
  22262074.718    22262076.534    77349241.988 8 -85797433.062 9
  24342202.709    24342205.772    16954620.906 9 -43065566.039 9
 86  6 17  4 24 11.0800000  0  3G12G13G 7
  21711599.583    21711602.407    48989522.308 9 -63957169.249 9
  22263989.726    22263991.453    77359305.423 9 -85789591.427 9
  24341835.701    24341839.225    16952689.376 9 -43067071.129 9
 86  6 17  4 24 17.0800000  0  3G12G13G 7
  21714554.021    21714556.248    49005043.481 9 -63945074.834 9
  22265904.373    22265907.910    77369370.091 9 -85781748.823 9
  24341472.595    24341475.975    16950783.989 9 -43068555.849 8
 86  6 17  4 24 23.0800000  0  3G12G13G 7
  21717509.760    21717513.911    49020582.494 9 -63932966.524 8
  22267819.848    22267822.320    77379436.033 9 -85773905.246 9
  24341113.920    24341117.202    16948902.056 9 -43070022.283 9
 86  6 17  4 24 29.0800000  0  3G12G13G 7
  21720471.696    21720473.597    49036139.167 9 -63920844.436 8
  22269735.536    22269739.008    77389503.038 9 -85766060.822 9
  24340760.578    24340764.050    16947041.152 9 -43071472.334 9
 86  6 17  4 24 35.0800000  0  3G12G13G 7
  21723435.264    21723437.397    49051713.608 9 -63908708.514 9
  22271652.413    22271654.105    77399571.241 9 -85758215.469 9
  24340409.868    24340412.742    16945200.752 9 -43072906.419 9
 86  6 17  4 24 41.0800000  0  3G12G13G 7
  21726401.384    21726404.244    49067305.907 9 -63896558.681 9
  22273568.650    22273570.940    77409640.807 9 -85750369.063 9
  24340064.318    24340066.647    16943383.571 9 -43074322.394 9
 86  6 17  4 24 47.0800000  0  3G12G13G 7
  21729372.875    21729374.420    49082915.854 9 -63884395.091 9
  22275484.177    22275487.041    77419711.468 9 -85742521.789 8
                  24339726.700                   -43075715.333 9
 86  6 17  4 24 53.0800000  0  3G12G13G 7
  21732346.494    21732348.756    49098543.376 8 -63872217.793 8
  22277401.197    22277404.036    77429783.191 9 -85734673.684 8
  24339391.648    24339393.518    16905163.849 9 -43077080.247 9
 86  6 17  4 24 59.0800000  0  3G12G13G 7
  21735322.405    21735325.697    49114188.681 9 -63860026.656 9
  22279318.746    22279319.774    77439856.164 9 -85726824.626 9
  24339065.331    24339067.563    16903450.162 9 -43078415.574 9
 86  6 17  4 25  5.0800000  0  3G12G13G 7
  21738303.760    21738306.470    49129851.623 9 -63847821.773 9
  22281234.553    22281237.605    77449930.307 9 -85718974.642 8
  24338745.545    24338747.698    16901771.537 9 -43079723.978 8
 86  6 17  4 25 11.0800000  0  3G12G13G 7
  21741288.279    21741290.612    49145532.025 9 -63835603.288 8
  22283151.888    22283155.724    77460005.438 9 -85711123.885 9
  24338433.089    24338434.586    16900122.286 9 -43081009.109 9
 86  6 17  4 25 17.0800000  0  3G12G13G 7
  21744276.124    21744278.094    49161229.992 9 -63823371.115 8
  22285070.123    22285071.988    77470081.838 9 -85703272.141 9
  24338123.384    24338125.323    16898499.041 9 -43082273.971 9
 86  6 17  4 25 23.0800000  0  3G12G13G 7
  21747265.622    21747268.139    49176945.575 9 -63811125.196 8
  22286987.097    22286988.941    77480159.581 9 -85695419.355 9
  24337818.997    24337821.763    16896899.208 9 -43083520.583 9
 86  6 17  4 25 29.0800000  0  3G12G13G 7
  21750259.789    21750260.615    49192678.574 9 -63798865.721 8
  22288905.543    22288908.157    77490238.344 9 -85687565.768 9
  24337518.428    24337520.401    16895320.424 9 -43084750.811 9
 86  6 17  4 25 35.0800000  0  3G12G13G 7
  21753255.930    21753259.046    49208429.028 9 -63786592.655 9
  22290823.565    22290825.944    77500318.077 9 -85679711.442 9
  24337222.777    24337224.419    16893762.140 9 -43085965.056 9
 86  6 17  4 25 41.0800000  0  3G12G13G 7
  21756257.271    21756259.690    49224197.026 9 -63774305.892 9
  22292741.169    22292743.886    77510399.077 9 -85671856.118 9
  24336929.927    24336932.324    16892227.271 9 -43087161.052 8
 86  6 17  4 25 47.0800000  0  3G12G13G 7
  21759262.007    21759263.823    49239982.550 9 -63762005.496 8
  22294660.850    22294662.370    77520481.194 9 -85663999.921 8
                  24336645.765                   -43088333.696 8
 86  6 17  4 25 53.0800000  0  3G12G13G 7
  21762268.416    21762271.356    49255785.372 9 -63749691.611 8
  22296577.905    22296581.948    77530564.367 9 -85656142.904 9
  24336364.180    24336367.829    16854285.227 9 -43089478.089 9
 86  6 17  4 25 59.0800000  0  3G12G13G 7
  21765278.323    21765281.289    49271605.631 9 -63737364.130 8
  22298497.977    22298500.450    77540648.858 9 -85648284.859 9
  24336091.314    24336093.761    16852854.268 9 -43090593.121 9
 86  6 17  4 26  5.0800000  0  3G12G13G 7
  21768292.297    21768295.745    49287443.362 8 -63725023.045 8
  22300416.903    22300419.936    77550734.580 9 -85640425.852 9
  24335825.829    24335828.521    16851457.120 9 -43091681.419 9
 86  6 17  4 26 11.0800000  0  3G12G13G 7
  21771309.682    21771312.282    49303298.363 9 -63712668.502 8
  22302336.052    22302339.297    77560821.415 9 -85632565.979 9
  24335565.451    24335567.971    16850090.214 9 -43092746.530 8
 86  6 17  4 26 17.0800000  0  3G12G13G 7
  21774330.874    21774333.082    49319170.652 9 -63700300.492 8
  22304256.152    22304259.681    77570909.339 9 -85624705.261 9
  24335310.518    24335313.291    16848749.085 9 -43093791.577 9
 86  6 17  4 26 23.0800000  0  3G12G13G 7
  21777353.170    21777355.865    49335060.341 9 -63687918.921 8
  22306175.763    22306178.911    77580998.464 9 -85616843.616 8
  24335059.363    24335062.802    16847431.097 9 -43094818.569 8
 86  6 17  4 26 29.0800000  0  3G12G13G 7
  21780380.441    21780383.631    49350967.185 8 -63675523.976 8
  22308095.599    22308098.050    77591088.598 9 -85608981.166 9
  24334813.092    24334815.050    16846134.251 9 -43095829.102 9
 86  6 17  4 26 35.0800000  0  3G12G13G 7
  21783411.576    21783413.818    49366891.174 8 -63663115.675 8
  22310016.082    22310020.254    77601179.775 9 -85601117.911 9
  24334569.777    24334573.698    16844857.935 9 -43096823.635 9
 86  6 17  4 26 41.0800000  0  3G12G13G 7
  21786444.922    21786447.149    49382832.522 8 -63650693.844 8
  22311937.208    22311939.311    77611272.182 9 -85593253.702 9
  24334331.351    24334333.836    16843605.225 9 -43097799.773 9
 86  6 17  4 26 47.0800000  0  3G12G13G 7
  21789482.331    21789484.645    49398791.143 9 -63638258.564 8
  22313858.052    22313860.870    77621365.753 9 -85585388.578 9
                  24334101.797                   -43098752.198 8
 86  6 17  4 26 53.0800000  0  3G12G13G 7
  21792521.097    21792525.232    49414766.797 9 -63625810.007 9
  22315779.549    22315780.644    77631460.319 9 -85577522.684 8
  24333872.191    24333874.851    16805951.654 9 -43099676.197 8
 86  6 17  4 26 59.0800000  0  3G12G13G 7
  21795564.573    21795567.033    49430759.592 9 -63613348.101 8
  22317700.948    22317703.065    77641556.083 9 -85569655.851 8
  24333654.998    24333657.416    16804803.486 9 -43100570.860 8
 86  6 17  4 27  5.0800000  0  3G12G13G 7
  21798612.056    21798614.197    49446769.541 9 -63600872.810 9
  22319623.276    22319624.372    77651653.114 9 -85561788.025 9
  24333442.524    24333445.086    16803690.131 9 -43101438.800 8
 86  6 17  4 27 11.0800000  0  3G12G13G 7
  21801661.132    21801663.086    49462796.437 9 -63588384.325 9
  22321543.072    22321545.823    77661751.186 9 -85553919.399 9
  24333235.937    24333239.176    16802605.694 9 -43102283.815 8
 86  6 17  4 27 17.0800000  0  3G12G13G 7
  21804713.985    21804718.155    49478840.355 9 -63575882.584 9
  22323465.351    22323467.587    77671850.304 9 -85546049.965 9
  24333034.348    24333036.907    16801546.878 9 -43103108.858 9
 86  6 17  4 27 23.0800000  0  3G12G13G 7
  21807769.138    21807773.454    49494901.458 9 -63563367.452 9
  22325387.093    22325390.260    77681950.633 9 -85538179.577 8
  24332838.293    24332839.526    16800511.252 9 -43103915.835 8
 86  6 17  4 27 29.0800000  0  3G12G13G 7
  21810829.498    21810833.069    49510979.595 8 -63550839.048 8
  22327309.236    22327312.066    77692052.120 9 -85530308.290 8
  24332644.947    24332646.867    16799496.600 9 -43104706.471 8
 86  6 17  4 27 35.0800000  0  3G12G13G 7
  21813892.998    21813894.999    49527074.538 9 -63538297.541 9
  22329230.830    22329234.386    77702154.607 9 -85522436.227 9
  24332455.150    24332457.902    16798502.353 9 -43105481.205 8
 86  6 17  4 27 41.0800000  0  3G12G13G 7
  21816959.067    21816961.206    49543186.604 9 -63525742.675 8
  22331153.755    22331156.655    77712258.267 9 -85514563.240 8
  24332270.921    24332273.142    16797532.178 9 -43106237.186 8
 86  6 17  4 27 47.0800000  0  3G12G13G 7
  21820027.504    21820032.260    49559315.679 9 -63513174.569 8
  22333077.773    22333078.824    77722363.205 9 -85506689.264 9
                  24332093.936                   -43106969.056 8
 86  6 17  4 27 53.0800000  0  3G12G13G 7
  21823099.851    21823103.543    49575461.559 9 -63500593.369 9
  22335000.028    22335001.751    77732469.029 9 -85498814.598 9
  24331920.258    24331921.419    16760155.789 9 -43107672.407 8
 86  6 17  4 27 59.0800000  0  3G12G13G 7
  21826175.413    21826180.176    49591624.324 9 -63487999.019 8
  22336923.377    22336924.965    77742575.925 9 -85490939.085 9
  24331756.385    24331757.431    16759290.514 9 -43108346.649 9
 86  6 17  4 28  5.0800000  0  3G12G13G 7
  21829255.957    21829259.033    49607804.071 9 -63475391.426 9
  22338847.677    22338849.115    77752684.003 9 -85483062.664 9
  24331598.089    24331600.157    16758458.950 9 -43108994.226 8
 86  6 17  4 28 11.0800000  0  3G12G13G 7
  21832337.458    21832339.807    49624000.634 8 -63462770.731 8
  22340770.619    22340773.347    77762793.224 9 -85475185.351 8
  24331446.133    24331447.345    16757657.138 9 -43109619.004 8
 86  6 17  4 28 17.0800000  0  3G12G13G 7
  21835422.922    21835425.003    49640213.864 9 -63450137.039 9
  22342695.518    22342696.514    77772903.440 9 -85467307.247 9
  24331298.480    24331300.439    16756880.603 9 -43110224.098 8
 86  6 17  4 28 23.0800000  0  3G12G13G 7
  21838510.000    21838514.602    49656443.981 9 -63437490.198 8
  22344618.850    22344620.265    77783014.845 9 -85459428.243 8
  24331154.225    24331155.945    16756127.004 9 -43110811.302 8
 86  6 17  4 28 29.0800000  0  3G12G13G 7
  21841600.948    21841606.553    49672690.832 9 -63424830.332 9
  22346543.643    22346545.182    77793127.419 9 -85451548.312 9
  24331014.622    24331016.193    16755394.421 9 -43111382.152 9
 86  6 17  4 28 35.0800000  0  3G12G13G 7
  21844696.857    21844700.481    49688954.245 9 -63412157.555 8
  22348467.047    22348470.112    77803241.017 9 -85443667.581 9
  24330879.373    24330881.721    16754682.424 9 -43111936.948 9
 86  6 17  4 28 41.0800000  0  3G12G13G 7
  21847795.836    21847797.728    49705234.430 9 -63399471.691 7
  22350391.519    22350394.675    77813355.706 9 -85435786.006 8
  24330748.444    24330750.136    16753994.540 9 -43112472.951 8
 86  6 17  4 28 47.0800000  0  3G12G13G 7
  21850896.116    21850898.363    49721531.545 9 -63386772.632 8
  22352317.250    22352319.467    77823471.636 9 -85427903.460 8
                  24330626.280                   -43112984.497 8
 86  6 17  4 28 53.0800000  0  3G12G13G 7
  21854000.712    21854004.219    49737845.176 8 -63374060.721 9
  22354243.019    22354245.531    77833588.513 9 -85420020.182 9
  24330505.601    24330507.396    16716901.447 9 -43113467.303 9
 86  6 17  4 28 59.0800000  0  3G12G13G 7
  21857107.908    21857112.641    49754175.445 9 -63361335.847 9
  22356166.698    22356169.328    77843706.396 9 -85412136.104 9
  24330394.044    24330397.200    16716319.139 9 -43113921.052 9
 86  6 17  4 29  5.0800000  0  3G12G13G 7
  21860217.868    21860222.871    49770522.432 9 -63348597.942 8
  22358092.550    22358096.192    77853825.566 9 -85404251.054 9
  24330288.987    24330293.169    16715770.634 9 -43114348.456 9
 86  6 17  4 29 11.0800000  0  3G12G13G 7
  21863332.025    21863335.985    49786885.968 9 -63335847.129 9
  22360019.499    22360021.499    77863945.840 9 -85396365.108 9
  24330191.692    24330193.436    16715251.138 9 -43114753.244 8
 86  6 17  4 29 17.0800000  0  3G12G13G 7
  21866449.792    21866453.758    49803265.888 9 -63323083.554 9
  22361944.583    22361947.871    77874067.105 9 -85388478.417 9
  24330096.965    24330098.938    16714756.793 9 -43115138.452 9
 86  6 17  4 29 23.0800000  0  3G12G13G 7
  21869568.709    21869573.362    49819662.391 8 -63310307.063 8
  22363872.288    22363874.076    77884189.574 9 -85380590.782 8
  24330006.704    24330010.211    16714285.382 9 -43115505.777 9
 86  6 17  4 29 29.0800000  0  3G12G13G 7
  21872691.235    21872696.650    49836075.486 9 -63297517.650 9
  22365797.341    22365800.805    77894313.160 9 -85372702.274 9
  24329922.086    24329924.540    16713834.958 9 -43115856.750 8
 86  6 17  4 29 35.0800000  0  3G12G13G 7
  21875818.955    21875822.479    49852504.907 9 -63284715.506 8
  22367724.389    22367727.101    77904437.701 9 -85364813.020 8
  24329840.028    24329842.439    16713405.122 9 -43116191.687 8
 86  6 17  4 29 41.0800000  0  3G12G13G 7
  21878948.753    21878952.983    49868950.725 9 -63271900.596 9
  22369651.357    22369654.047    77914563.336 9 -85356922.910 9
                  24329766.518                   -43116507.509 9
 86  6 17  4 29 47.0800000  0  3G12G13G 7
  21882081.509    21882085.630    49885413.132 9 -63259072.760 8
  22371578.634    22371580.059    77924690.192 9 -85349031.858 9
  24329672.266    24329694.259    16676530.070 9 -43116798.716 8
 86  6 17  4 29 53.0800000  0  3G12G13G 7
  21885215.489    21885221.346    49901891.990 8 -63246232.087 9
  22373505.950    22373507.883    77934818.052 9 -85341140.015 9
  24329627.505    24329629.381    16676193.199 9 -43117060.844 9
 86  6 17  4 29 59.0800000  0  3G12G13G 7
  21888355.625    21888360.067    49918387.047 9 -63233378.800 9
  22375433.893    22375434.348    77944946.790 9 -85333247.488 9
  24329570.438    24329572.495    16675894.328 9 -43117294.105 8
 86  6 17  4 30  5.0800000  0  3G12G13G 7
  21891497.043    21891501.935    49934898.491 9 -63220512.742 8
  22377361.951    22377364.050    77955076.691 9 -85325354.059 9
  24329521.236    24329522.767    16675628.496 9 -43117501.253 9
 86  6 17  4 30 11.0800000  0  3G12G13G 7
  21894643.335    21894647.705    49951426.427 9 -63207633.830 9
  22379289.117    22379290.971    77965207.798 8 -85317459.685 9
  24329475.740    24329478.218    16675391.614 9 -43117685.832 8
 86  6 17  4 30 17.0800000  0  3G12G13G 7
  21897791.758    21897795.656    49967970.463 9 -63194742.391 9
  22381217.231    22381218.358    77975339.715 9 -85309564.690 9
  24329435.866    24329435.879    16675179.650 9 -43117850.993 9
 86  6 17  4 30 23.0800000  0  3G12G13G 7
  21900943.253    21900947.981    49984530.843 8 -63181838.219 8
  22383145.813    22383146.677    77985472.804 9 -85301668.767 9
  24329399.099    24329400.059    16674990.415 9 -43117998.449 8
 86  6 17  4 30 29.0800000  0  3G12G13G 7
  21904096.614    21904100.323    50001107.589 9 -63168921.260 9
  22385073.776    22385076.220    77995607.166 9 -85293771.872 9
  24329367.733    24329369.112    16674822.089 9 -43118129.612 8
 86  6 17  4 30 35.0800000  0  3G12G13G 7
  21907255.416    21907259.007    50017700.412 9 -63155991.799 9
  22387001.262    22387004.126    78005742.499 9 -85285874.201 9
  24329338.971    24329340.761    16674674.522 9 -43118244.596 8
 86  6 17  4 30 41.0800000  0  3G12G13G 7
  21910416.129    21910419.391    50034309.293 9 -63143049.803 9
  22388931.649    22388933.840    78015878.775 9 -85277975.799 9
                  24329317.339                   -43118340.346 8
 86  6 17  4 30 47.0800000  0  3G12G13G 7
  21913580.184    21913584.414    50050934.561 8 -63130095.067 8
  22390860.884    22390862.571    78026016.320 9 -85270076.429 9
  24329227.786    24329301.078    16638081.222 9 -43118411.271 9
 86  6 17  4 30 53.0800000  0  3G12G13G 7
  21916745.467    21916751.267    50067575.978 9 -63117127.734 9
  22392789.818    22392791.901    78036154.927 9 -85262176.204 9
  24329288.648    24329290.364    16638027.562 9 -43118452.996 9
 86  6 17  4 30 59.0800000  0  3G12G13G 7
  21919917.101    21919920.431    50084233.580 9 -63104147.800 9
  22394719.241    22394722.440    78046294.634 9 -85254275.120 8
  24329285.393    24329287.689    16638010.605 9 -43118465.817 9
 86  6 17  4 31  5.0800000  0  3G12G13G 7
  21923089.287    21923091.901    50100907.294 8 -63091155.301 9
  22396649.648    22396651.881    78056435.488 9 -85246373.170 9
  24329287.418    24329290.863    16638027.356 9 -43118452.765 9
 86  6 17  4 31 11.0800000  0  3G12G13G 7
  21926265.903    21926268.484    50117597.022 9 -63078150.313 9
  22398578.985    22398580.749    78066577.308 9 -85238470.449 9
  24329296.669    24329299.579    16638072.611 9 -43118417.500 9
 86  6 17  4 31 17.0800000  0  3G12G13G 7
  21929444.321    21929448.493    50134302.534 8 -63065133.039 8
  22400508.972    22400511.561    78076719.985 9 -85230567.055 8
  24329309.603    24329311.417    16638142.593 9 -43118362.978 8
 86  6 17  4 31 23.0800000  0  3G12G13G 7
  21932626.981    21932629.548    50151024.187 8 -63052103.183 8
  22402439.357    22402441.564    78086863.835 9 -85222662.762 9
  24329327.232    24329330.471    16638235.265 9 -43118290.755 8
 86  6 17  4 31 29.0800000  0  3G12G13G 7
  21935810.894    21935816.138    50167761.857 9 -63039060.849 9
  22404369.785    22404371.706    78097008.869 9 -85214757.544 9
  24329348.161    24329350.801    16638348.653 9 -43118202.407 9
 86  6 17  4 31 35.0800000  0  3G12G13G 7
  21938999.532    21939002.850    50184515.370 9 -63026006.176 9
  22406300.149    22406303.007    78107154.896 9 -85206851.557 8
  24329373.680    24329376.664    16638482.995 9 -43118097.710 9
 86  6 17  4 31 41.0800000  0  3G12G13G 7
  21942190.653    21942193.858    50201284.779 9 -63012939.106 9
  22408230.916    22408234.238    78117301.935 9 -85198944.768 9
                  24329407.264                   -43117973.526 9
 86  6 17  4 31 47.0800000  0  3G12G13G 7
  21945384.312    21945387.546    50218070.166 9 -62999859.581 9
  22410162.750    22410164.561    78127450.190 9 -85191037.035 9
  24329406.756    24329443.387    16602166.101 9 -43117824.289 8
 86  6 17  4 31 53.0800000  0  3G12G13G 7
  21948582.200    21948586.136    50234871.420 8 -62986767.713 9
  22412093.905    22412096.713    78137599.453 9 -85183128.519 9
  24329484.270    24329487.101    16602395.021 9 -43117645.746 9
 86  6 17  4 31 59.0800000  0  3G12G13G 7
  21951782.165    21951784.941    50251688.478 8 -62973663.514 9
  22414026.370    22414028.259    78147749.730 9 -85175219.210 9
  24329534.213    24329537.438    16602660.984 9 -43117438.499 9
 86  6 17  4 32  5.0800000  0  3G12G13G 7
  21954986.441    21954989.080    50268521.361 9 -62960546.986 8
  22415956.737    22415960.240    78157901.054 9 -85167309.090 9
  24329592.363    24329595.436    16602959.812 9 -43117205.644 9
 86  6 17  4 32 11.0800000  0  3G12G13G 7
  21958190.718    21958195.219    50285370.147 8 -62947418.066 8
  22417889.555    22417891.460    78168053.557 9 -85159398.032 9
  24329655.008    24329657.187    16603287.204 9 -43116950.540 8
 86  6 17  4 32 17.0800000  0  3G12G13G 7
  21961400.047    21961404.007    50302234.651 9 -62934276.910 9
  22419821.144    22419823.477    78178207.041 9 -85151486.243 8
  24329721.861    24329723.673    16603639.437 9 -43116676.068 9
 86  6 17  4 32 23.0800000  0  3G12G13G 7
  21964612.746    21964616.498    50319114.788 9 -62921123.566 9
  22421753.992    22421756.031    78188361.487 9 -85143573.674 9
  24329792.661    24329795.263    16604013.961 9 -43116384.223 9
 86  6 17  4 32 29.0800000  0  3G12G13G 7
  21967827.497    21967830.368    50336010.700 9 -62907957.917 9
  22423686.116    22423688.951    78198517.105 9 -85135660.214 9
  24329868.347    24329870.457    16604409.158 9 -43116076.288 8
 86  6 17  4 32 35.0800000  0  3G12G13G 7
  21971045.587    21971049.424    50352922.325 9 -62894780.036 9
  22425618.683    22425621.379    78208673.870 9 -85127745.844 9
  24329947.113    24329949.766    16604825.468 9 -43115751.877 9
 86  6 17  4 32 41.0800000  0  3G12G13G 7
  21974266.570    21974270.422    50369849.522 9 -62881590.012 9
  22427552.026    22427554.406    78218831.513 9 -85119830.792 9
                  24330033.878                   -43115407.818 8
 86  6 17  4 32 47.0800000  0  3G12G13G 7
  21977491.327    21977495.079    50386792.454 8 -62868387.724 8
  22429485.191    22429487.306    78228990.265 9 -85111914.895 8
  24330123.967    24330124.024    16568784.681 9 -43115038.426 8
 86  6 17  4 32 53.0800000  0  3G12G13G 7
  21980717.694    21980722.031    50403751.079 8 -62855173.228 9
  22431418.075    22431420.887    78239150.153 9 -85103998.088 9
  24330219.429    24330220.775    16569296.270 9 -43114639.680 8
 86  6 17  4 32 59.0800000  0  3G12G13G 7
  21983948.014    21983952.446    50420725.295 8 -62841946.574 8
  22433352.565    22433355.360    78249311.043 9 -85096080.506 9
  24330323.945    24330325.143    16569844.639 9 -43114212.385 9
 86  6 17  4 33  5.0800000  0  3G12G13G 7
  21987181.990    21987185.178    50437714.973 9 -62828707.865 8
  22435285.984    22435287.782    78259472.891 9 -85088162.174 9
  24330434.125    24330437.385    16570426.324 9 -43113759.516 9
 86  6 17  4 33 11.0800000  0  3G12G13G 7
  21990416.655    21990420.601    50454720.277 9 -62815456.973 9
  22437219.805    22437221.520    78269635.872 9 -85080242.970 8
  24330549.723    24330552.171    16571035.663 9 -43113284.704 9
 86  6 17  4 33 17.0800000  0  3G12G13G 7
  21993656.393    21993660.000    50471741.105 9 -62802193.987 9
  22439154.199    22439157.049    78279799.882 9 -85072322.961 9
  24330670.750    24330673.741    16571669.569 9 -43112790.751 9
 86  6 17  4 33 23.0800000  0  3G12G13G 7
  21996897.998    21996902.755    50488777.251 9 -62788919.075 8
  22441088.306    22441090.027    78289964.808 9 -85064402.235 9
  24330796.002    24330798.674    16572325.560 9 -43112279.581 8
 86  6 17  4 33 29.0800000  0  3G12G13G 7
  22000142.381    22000146.877    50505828.940 9 -62775632.066 9
  22443023.385    22443024.790    78300130.868 9 -85056480.631 9
  24330924.078    24330926.119    16573002.212 9 -43111752.323 9
 86  6 17  4 33 35.0800000  0  3G12G13G 7
  22003389.737    22003395.569    50522896.180 9 -62762332.920 9
  22444957.089    22444959.415    78310298.031 9 -85048558.164 9
  24331057.792    24331058.787    16573700.185 9 -43111208.453 9
 86  6 17  4 33 41.0800000  0  3G12G13G 7
  22006640.802    22006645.895    50539978.632 9 -62749021.923 8
  22446891.604    22446895.089    78320466.016 9 -85040635.060 9
                  24331197.157                   -43110644.712 9
 86  6 17  4 33 47.0800000  0  3G12G13G 7
  22009894.916    22009899.065    50557076.455 9 -62735698.953 9
  22448826.544    22448830.842    78330635.077 9 -85032711.114 9
  24331349.137    24331341.911    16537937.127 9 -43110055.453 8
 86  6 17  4 33 53.0800000  0  3G12G13G 7
  22013150.505    22013155.869    50574189.755 9 -62722363.915 9
  22450762.357    22450765.497    78340805.286 9 -85024786.273 9
  24331490.687    24331491.705    16538731.042 9 -43109436.598 8
 86  6 17  4 33 59.0800000  0  3G12G13G 7
  22016409.849    22016416.106    50591318.380 8 -62709016.946 9
  22452698.490    22452701.353    78350976.509 9 -85016860.650 9
  24331647.350    24331649.647    16539561.677 9 -43108789.357 8
 86  6 17  4 34  5.0800000  0  3G12G13G 7
  22019673.035    22019678.083    50608462.192 9 -62695658.140 9
  22454633.997    22454637.076    78361148.674 9 -85008934.276 9
  24331811.659    24331813.880    16540424.514 9 -43108117.023 8
 86  6 17  4 34 11.0800000  0  3G12G13G 7
  22022938.450    22022942.868    50625621.319 9 -62682287.394 9
  22456570.403    22456572.258    78371322.022 9 -85001006.984 8
  24331980.561    24331983.270    16541315.257 9 -43107422.923 8
 86  6 17  4 34 17.0800000  0  3G12G13G 7
  22026205.630    22026210.846    50642795.785 9 -62668904.706 8
  22458506.034    22458508.868    78381496.520 9 -84993078.807 9
  24332154.659    24332158.110    16542230.502 9 -43106709.752 8
 86  6 17  4 34 23.0800000  0  3G12G13G 7
  22029476.180    22029482.134    50659985.355 8 -62655510.244 8
  22460443.769    22460444.841    78391671.971 9 -84985149.886 9
  24332333.303    24332336.262    16543167.848 9 -43105979.348 9
 86  6 17  4 34 29.0800000  0  3G12G13G 7
  22032751.633    22032755.644    50677190.167 8 -62642103.899 9
  22462378.790    22462381.270    78401848.454 9 -84977220.150 9
  24332516.329    24332518.548    16544125.746 9 -43105232.932 8
 86  6 17  4 34 35.0800000  0  3G12G13G 7
  22036029.640    22036033.155    50694410.233 9 -62628685.659 7
  22464315.758    22464317.676    78412026.120 8 -84969289.504 9
  24332701.640    24332705.098    16545105.033 9 -43104469.859 8
 86  6 17  4 34 41.0800000  0  3G12G13G 7
  22039309.131    22039313.173    50711645.336 9 -62615255.715 9
  22466251.963    22466255.380    78422204.745 9 -84961358.108 9
                  24332895.617                   -43103686.616 8
 86  6 17  4 34 47.0800000  0  3G12G13G 7
  22042589.393    22042594.550    50728895.446 9 -62601814.096 9
  22468189.412    22468191.512    78432384.287 9 -84953425.992 9
  24333071.815    24333093.851    16509621.810 8 -43102877.699 8
 86  6 17  4 34 53.0800000  0  3G12G13G 7
  22045876.228    22045881.721    50746160.813 9 -62588360.564 9
  22470127.159    22470129.227    78442564.956 9 -84945493.004 9
  24333295.841    24333297.997    16510697.931 9 -43102039.152 9
 86  6 17  4 34 59.0800000  0  3G12G13G 7
  22049165.357    22049168.995    50763441.250 9 -62574895.290 8
  22472064.412    22472066.819    78452746.615 9 -84937559.245 9
  24333507.675    24333509.854    16511809.955 9 -43101172.247 9
 86  6 17  4 35  5.0800000  0  3G12G13G 7
  22052455.686    22052461.202    50780736.561 9 -62561418.424 9
  22474002.068    22474004.842    78462929.154 9 -84929624.795 8
  24333725.878    24333727.114    16512954.368 9 -43100280.499 9
 86  6 17  4 35 11.0800000  0  3G12G13G 7
  22055750.244    22055753.572    50798047.009 9 -62547929.772 8
  22475940.299    22475941.982    78473112.861 9 -84921689.432 8
  24333948.720    24333951.175    16514126.531 9 -43099367.128 8
 86  6 17  4 35 17.0800000  0  3G12G13G 7
  22059046.904    22059051.437    50815372.520 9 -62534429.376 8
  22477878.094    22477880.312    78483297.659 9 -84913753.216 9
  24334176.120    24334177.950    16515323.044 9 -43098434.779 9
 86  6 17  4 35 23.0800000  0  3G12G13G 7
  22062346.463    22062349.884    50832712.800 9 -62520917.470 8
  22479816.001    22479818.324    78493483.377 9 -84905816.294 9
  24334409.054    24334409.829    16516541.434 9 -43097485.378 9
 86  6 17  4 35 29.0800000  0  3G12G13G 7
  22065648.949    22065654.078    50850067.922 8 -62507393.999 9
  22481755.409    22481756.848    78503670.132 9 -84897878.556 9
  24334644.316    24334646.011    16517780.426 9 -43096519.937 8
 86  6 17  4 35 35.0800000  0  3G12G13G 7
  22068955.091    22068958.752    50867438.028 8 -62493858.855 8
  22483693.867    22483696.071    78513858.116 9 -84889939.869 9
  24334884.368    24334885.627    16519040.899 9 -43095537.751 9
 86  6 17  4 35 41.0800000  0  3G12G13G 7
  22072263.363    22072267.174    50884823.041 8 -62480312.098 8
  22485632.934    22485634.199    78524047.116 9 -84882000.381 9
                  24335129.933                   -43094535.144 9
 86  6 17  4 35 47.0800000  0  3G12G13G 7
  22075575.493    22075576.715    50902222.848 8 -62466753.810 9
  22487571.477    22487573.501    78534236.998 9 -84874060.218 9
  24335315.897    24335381.905    16483838.310 9 -43093506.571 9
 86  6 17  4 35 53.0800000  0  3G12G13G 7
  22078888.516    22078890.951    50919637.595 9 -62453183.883 9
  22489511.526    22489513.357    78544427.928 9 -84866119.219 9
  24335638.063    24335640.803    16485195.907 9 -43092448.510 8
